Simultaneous Nadir Overpasses (SNOs) Predictions

Prediction of SNOs between LANDSAT-8 and METOP-B Satellite Orbit:

Table of predicted SNOs for the next 14.0 days since TLE Epoch: 6/29/2018
Index Date (LANDSAT-8) Time (LANDSAT-8) Lat,Lon (LANDSAT-8) SZA (LANDSAT-8 ) Date (METOP-B) Time (METOP-B) Lat,Lon (METOP-B) SZA (METOP-B ) Distance(km) Time Diff (sec)
1 07/01/2018 00:36:18 81.23,-147.42 60.34 07/01/2018 00:35:51 81.22,-147.48 60.32 1.16 27
2 07/01/2018 01:25:44 -81.25, 20.53 119.62 07/01/2018 01:26:30 -81.24, 20.48 119.61 1.05 46
3 07/03/2018 20:10:35 81.22, -81.10 60.52 07/03/2018 20:10:11 81.22, -81.08 60.51 0.45 24
4 07/03/2018 21:00:01 -81.24, 86.87 119.44 07/03/2018 21:00:50 -81.24, 86.89 119.41 0.29 49
5 07/06/2018 15:44:50 81.24, -14.44 60.80 07/06/2018 15:44:29 81.23, -14.31 60.80 2.31 21
6 07/06/2018 16:34:17 -81.23, 153.19 119.20 07/06/2018 16:35:09 -81.24, 153.28 119.16 1.81 52
7 07/09/2018 11:19:07 81.22, 51.81 61.08 07/09/2018 11:18:50 81.22, 51.68 61.05 2.23 17
8 07/09/2018 12:08:33 -81.25,-140.17 118.87 07/09/2018 12:09:29 -81.24,-140.34 118.87 2.99 56
9 07/12/2018 06:53:23 81.23, 118.40 61.45 07/12/2018 06:53:09 81.23, 118.42 61.45 0.36 14




NCC Satellite Simultaneous Nadir Overpasses (SNOs) Prediction Service
